This is the latest recevied weather packets stored in our database for station/object N8ESC. If no packets are shown the sender has not sent any weather packets the latest 10 day(s).
| Time | Temp. | Humidity | Pressure | Rain* | Wind** | Luminosity | Snow |
|---|---|---|---|---|---|---|---|
| 1778011015 | 10.56° C | 35% | 1004.8 hPa | 0 mm | - | 245 W/m² | - |
| 1778010712 | 11.11° C | 36% | 1004.8 hPa | 0 mm | - | 278 W/m² | - |
| 1778010409 | 11.11° C | 35% | 1004.5 hPa | 0 mm | - | 268 W/m² | - |
| 1778010105 | 11.11° C | 35% | 1004.5 hPa | 0 mm | - | 301 W/m² | - |
| 1778009802 | 11.11° C | 35% | 1004.6 hPa | 0 mm | - | 281 W/m² | - |
| 1778009499 | 11.11° C | 35% | 1004.5 hPa | 0 mm | - | 310 W/m² | - |
| 1778009198 | 11.11° C | 35% | 1004.4 hPa | 0 mm | - | 622 W/m² | - |
| 1778008895 | 11.11° C | 36% | 1004.5 hPa | 0 mm | - | 308 W/m² | - |
| 1778008593 | 11.11° C | 35% | 1004.5 hPa | 0 mm | - | 299 W/m² | - |
| 1778008291 | 10.56° C | 36% | 1004.5 hPa | 0 mm | - | 344 W/m² | - |
| 1778007987 | 11.11° C | 35% | 1004.3 hPa | 0 mm | - | 290 W/m² | - |
| 1778007681 | 11.11° C | 36% | 1004.4 hPa | 0 mm | - | 515 W/m² | - |
| 1778007379 | 11.11° C | 35% | 1004.3 hPa | 0 mm | - | 387 W/m² | - |
| 1778007075 | 12.22° C | 34% | 1004 hPa | 0 mm | - | 815 W/m² | - |
| 1778006772 | 11.11° C | 36% | 1004.4 hPa | 0 mm | - | 382 W/m² | - |
| 1778006468 | 11.11° C | 35% | 1004.2 hPa | 0 mm | - | 673 W/m² | - |
| 1778006165 | 11.11° C | 35% | 1004.1 hPa | 0 mm | - | 403 W/m² | - |
| 1778005863 | 10.56° C | 37% | 1004.3 hPa | 0 mm | - | 329 W/m² | - |
| 1778005559 | 10.56° C | 37% | 1004.2 hPa | 0 mm | - | 619 W/m² | - |
| 1778005256 | 11.11° C | 36% | 1004 hPa | 0 mm | - | 352 W/m² | - |
| 1778004952 | 10.56° C | 37% | 1004 hPa | 0 mm | - | 366 W/m² | - |
| 1778004650 | 10.56° C | 37% | 1004 hPa | 0 mm | - | 404 W/m² | - |
| 1778004345 | 10.56° C | 37% | 1004 hPa | 0 mm | - | 412 W/m² | - |
| 1778004044 | 10.56° C | 37% | 1004.1 hPa | 0 mm | - | 354 W/m² | - |
| 1778003744 | 10° C | 36% | 1003.8 hPa | 0 mm | - | 289 W/m² | - |
* Rain latest hour (hover to see other rain measurements)
** Current wind speed in m/s (hover to see current wind gust speed)